This demonstration page uses our WeatherBlox Daily Observations layout. Learn more.

Left ArrowRight Arrow

Hourly Observations for January 1, 2022

Temp ( °F °C ) Dew Point ( °F °C ) Humidity (%) Winds ( mph kmh ) Pressure ( in mb ) Visibility ( mi km ) Precip ( " mm )
12:53 am 00:53 Cloudy with Mist and Fog 65 18.3 63 17.2 93 93 NW 9 15 29.63 1004 5 8 0.01 0.25
1:53 am 01:53 Cloudy with Light Rain 65 18.3 63 17.2 93 93 N 6 9 29.62 1003 6 10 0.01 0.25
2:53 am 02:53 Cloudy 64 17.8 63 17.2 96 96 Calm 29.61 1003 7 11 0.00 0.00
3:53 am 03:53 Cloudy with Light Rain 64 17.8 61 16.1 90 90 E 3 6 29.61 1003 9 14 0.00 0.00
4:53 am 04:53 Cloudy 63 17.2 59 15 87 87 ESE 5 7 29.60 1002 10 16 0.00 0.00
5:00 am 05:00 Cloudy 63 17.2 59 15 87 87 ESE 3 6 29.61 1003 10 16 0.00 0.00
5:53 am 05:53 Cloudy 62 16.7 60 15.6 93 93 Calm 29.62 1003 10 16 0.00 0.00
6:53 am 06:53 Cloudy 62 16.7 58 14.4 86 86 E 5 7 29.60 1002 10 16 0.00 0.00
7:53 am 07:53 Cloudy 62 16.7 57 13.9 84 84 ESE 6 9 29.60 1002 10 16 0.00 0.00
8:53 am 08:53 Cloudy 62 16.7 58 14.4 86 86 ESE 6 9 29.61 1003 10 16 0.00 0.00
9:46 am 09:46 Cloudy 63 17 57 14 83 83 ESE 3 6 29.64 1004 10 16 0.00 0.00
9:53 am 09:53 Cloudy 63 17.2 59 15 87 87 ESE 5 7 29.65 1004 10 16 0.00 0.00
10:44 am 10:44 Mostly Cloudy 66 18.9 60 15.6 81 81 SSE 5 7 29.66 1004 10 16 0.00 0.00
10:53 am 10:53 Mostly Cloudy 67 19.4 60 15.6 79 79 S 3 6 29.65 1004 10 16 0.00 0.00
11:31 am 11:31 Mostly Cloudy 67 19.4 59 15 76 76 NW 10 17 29.66 1004 10 16 0.00 0.00
11:53 am 11:53 Mostly Cloudy 69 20.6 59 15 70 70 WNW 10 17 29.65 1004 10 16 0.00 0.00
12:53 pm 12:53 Mostly Cloudy 71 21.7 58 14.4 63 63 WNW 12 19 29.62 1003 10 16 0.00 0.00
1:53 pm 13:53 Mostly Cloudy 73 22.8 51 10.6 46 46 WNW 16 26 29.61 1003 10 16 0.00 0.00
2:32 pm 14:32 Partly Cloudy 56 13.3 46 7.8 70 70 NNW 26 43 29.69 1005 10 16 0.00 0.00
2:44 pm 14:44 Mostly Cloudy 54 12 45 7 72 72 NNW 26 43 29.70 1006 10 16 0.00 0.00
2:53 pm 14:53 Mostly Cloudy 51 10.6 43 6.1 74 74 NNW 29 46 29.70 1006 10 16 0.00 0.00
3:53 pm 15:53 Cloudy 43 6.1 37 2.8 80 80 NNW 20 31 29.77 1008 10 16 0.00 0.00
4:53 pm 16:53 Cloudy 38 3.3 33 0.6 83 83 N 16 26 29.83 1010 10 16 0.00 0.00
5:53 pm 17:53 Cloudy 36 2.2 30 -1.1 79 79 NNW 22 35 29.87 1012 10 16 0.00 0.00
6:53 pm 18:53 Cloudy 33 0.6 28 -2.2 82 82 NNW 17 28 29.91 1013 10 16 0.00 0.00
7:12 pm 19:12 Cloudy 32 0 27 -3 80 80 N 17 28 29.95 1014 10 16 0.00 0.00
7:53 pm 19:53 Cloudy 31 -0.6 24 -4.4 76 76 N 20 31 29.95 1014 10 16 0.00 0.00
8:53 pm 20:53 Cloudy 29 -1.7 23 -5 78 78 NNW 17 28 29.99 1016 10 16 0.00 0.00
9:30 pm 21:30 Cloudy 28 -2.2 21 -6.1 75 75 NW 20 31 30.06 1018 10 16 0.00 0.00
9:53 pm 21:53 Cloudy 27 -2.8 18 -7.8 69 69 NW 21 33 30.07 1018 10 16 0.00 0.00
10:53 pm 22:53 Cloudy 25 -3.9 16 -8.9 69 69 NNW 20 31 30.10 1019 10 16 0.00 0.00
11:53 pm 23:53 Cloudy 23 -5 15 -9.4 72 72 NNW 22 35 30.13 1020 10 16 0.00 0.00

Powered by AerisWeather